Location: Follega
(52.8850°N, 5.7362°E)
Time: 19:30:25
(UTC+00:00)

Cosmos 1340 Rocket - Visible Passes

Search period start: 26 September 2020 00:00
Search period end: 06 October 2020 00:00
Orbit: 530 x 558 km, 81.2° (Epoch: 25 September)

Date Brightness Start Highest point End Pass type
(mag) Time Alt. Az. Time Alt. Az. Time Alt. Az.
26 Sep 3.2 18:59:32 10° SSE 19:03:16 40° E 19:07:03 10° NNE visible
26 Sep 5.1 20:36:35 10° WSW 20:39:53 24° WNW 20:43:13 10° N visible
27 Sep 5.6 04:52:06 10° N 04:55:26 23° ENE 04:58:44 10° ESE visible
27 Sep 3.1 18:53:15 10° SSE 18:57:01 42° E 19:00:50 10° NNE visible
27 Sep 5.2 20:30:25 10° WSW 20:33:40 23° WNW 20:36:57 10° N visible
28 Sep 5.5 04:45:50 10° N 04:49:13 24° ENE 04:52:35 10° ESE visible
28 Sep 3.1 18:46:58 10° SSE 18:50:46 44° E 18:54:38 10° NNE visible
28 Sep 5.3 20:24:15 10° WSW 20:27:26 22° WNW 20:30:40 10° N visible
29 Sep 5.4 04:39:33 10° N 04:43:00 25° ENE 04:46:24 10° ESE visible
29 Sep 3.0 18:40:41 10° S 18:44:30 47° E 18:48:24 10° NNE visible
29 Sep 5.3 20:18:05 10° WSW 20:21:13 21° WNW 20:24:24 10° NNW visible
30 Sep 5.3 04:33:16 10° N 04:36:46 26° ENE 04:40:14 10° SE visible
30 Sep 3.0 18:34:24 10° S 18:38:15 49° E 18:42:10 10° NNE visible
30 Sep 5.4 20:11:56 10° WSW 20:15:00 21° WNW 20:18:06 10° NNW visible
01 Oct 5.2 04:27:00 10° N 04:30:33 27° ENE 04:34:04 10° SE visible
01 Oct 2.9 18:28:07 10° S 18:32:01 52° E 18:35:57 10° NNE visible
01 Oct 5.5 20:05:46 10° WSW 20:08:47 20° WNW 20:11:50 10° NNW visible
02 Oct 5.1 04:20:44 10° N 04:24:20 29° ENE 04:27:54 10° SE visible
02 Oct 2.9 18:21:51 10° S 18:25:45 55° E 18:29:43 10° NNE visible
02 Oct 5.6 19:59:38 10° WSW 20:02:34 19° WNW 20:05:32 10° NNW visible
03 Oct 5.0 04:14:27 10° N 04:18:07 30° ENE 04:21:43 10° SE visible
03 Oct 2.8 18:15:35 10° S 18:19:30 58° E 18:23:30 10° NNE visible
03 Oct 5.7 19:53:29 10° WSW 19:56:21 18° WNW 19:59:15 10° NNW visible
04 Oct 4.9 04:08:11 10° N 04:11:53 31° ENE 04:15:32 10° SE visible
04 Oct 2.8 18:09:18 10° S 18:13:16 61° E 18:17:17 10° NNE visible
04 Oct 5.8 19:47:21 10° WSW 19:50:08 18° WNW 19:52:58 10° NNW visible
05 Oct 4.8 04:01:56 10° N 04:05:40 32° ENE 04:09:21 10° SE visible
05 Oct 2.8 18:03:02 10° S 18:07:01 64° E 18:11:04 10° NNE visible
05 Oct 5.8 19:41:13 10° WSW 19:43:55 17° WNW 19:46:40 10° NNW visible
